Theta_e
331 333 335 335 334 335 335 336 337 338 338 338 337 336 336 337 337 337 337 337 336 334 331 332 332 332 333 332 331 332 328 327
328 329 330 327 326 332 332 334 335 335 336 335 333 333 333 334 334 334 334 332 332 333 333 332 331 330 330 329 329 329 323 322
328 328 328 326 324 327 332 333 333 334 334 333 329 326 325 326 331 331 329 327 326 325 325 323 322 320 322 325 327 322 320 320
327 327 327 325 327 324 326 328 328 328 328 328 326 323 322 324 326 328 327 326 325 323 323 321 317 313 314 317 316 317 317 318
319 321 322 323 324 323 324 325 324 325 325 324 324 324 322 320 320 320 317 321 316 316 314 312 311 310 311 311 313 314 314 317
319 321 320 317 323 323 324 323 323 322 322 322 320 318 318 318 317 317 315 314 312 312 312 312 311 311 311 312 313 313 314 315
316 319 319 317 319 316 318 318 321 319 318 317 319 317 315 315 315 313 312 313 312 311 312 312 311 311 312 313 314 314 315 315
315 317 318 316 313 313 312 312 312 313 313 314 317 317 315 315 313 312 311 312 310 308 307 306 305 307 307 308 311 313 313 313
314 314 315 315 313 313 310 309 309 309 311 312 313 313 312 313 312 311 310 309 308 306 303 299 299 300 299 300 305 307 303 303
311 315 312 311 312 311 310 308 307 307 309 309 309 312 309 308 307 307 306 307 305 298 297 296 296 296 296 297 297 298 298 300
308 309 310 310 310 309 307 307 305 305 307 307 308 309 309 306 305 304 302 302 301 298 297 296 295 295 296 296 295 295 296 299
305 305 308 307 304 302 301 301 302 302 304 307 308 307 307 303 304 304 301 300 299 297 297 297 296 296 298 297 295 295 295 295
302 300 303 301 299 299 298 300 300 300 301 305 307 307 306 303 302 303 301 299 299 298 297 296 296 295 293 293 294 295 294 295
301 300 300 300 299 299 299 298 299 300 301 302 305 306 306 304 301 302 302 299 298 298 297 295 295 295 293 291 289 291 292 295
300 300 300 300 300 299 298 298 298 297 298 299 302 306 306 304 302 301 301 301 299 297 297 296 294 294 295 293 287 286 289 292
300 301 301 301 300 299 297 297 298 300 301 300 300 302 304 305 304 301 300 300 297 296 297 295 294 292 293 297 293 292 285 283
300 302 303 303 303 301 299 298 300 301 300 297 298 299 301 303 303 303 301 300 298 296 293 291 292 290 291 289 289 289 289 286
300 301 302 303 302 302 300 299 300 299 299 298 299 297 297 299 300 299 297 295 292 292 294 293 293 293 293 292 291 288 286 285
300 301 301 302 302 302 302 301 300 299 299 299 298 295 292 292 294 294 293 295 295 296 295 295 295 293 293 292 292 291 291 289
300 301 301 302 302 302 301 300 298 299 298 298 296 293 291 292 293 295 296 296 296 295 295 294 295 294 292 292 291 290 290 290
Wind_Speed
5 4 4 3 3 5 6 6 6 6 6 6 6 5 6 7 7 8 8 8 6 3 2 1 4 5 4 4 4 4 4 3
4 4 3 2 3 3 3 4 6 6 5 6 6 5 6 7 7 7 8 9 9 9 8 8 8 9 9 8 8 7 5 5
4 4 3 2 2 2 3 4 5 3 4 4 4 3 3 5 6 8 10 10 11 12 12 11 10 11 12 14 10 3 3 3
5 4 4 3 3 2 1 2 1 2 3 5 3 3 2 2 4 7 7 7 7 8 7 7 7 4 4 8 4 5 4 4
5 5 4 5 4 3 2 1 1 1 3 4 4 3 3 2 1 1 2 3 2 4 4 4 5 4 4 4 4 5 3 4
7 7 6 4 3 3 3 2 2 2 3 4 4 2 3 3 2 2 2 0 1 1 1 1 3 4 4 5 6 5 3 3
8 6 6 5 5 3 2 2 3 2 2 2 3 3 3 2 3 2 2 2 2 1 1 1 2 3 4 4 5 5 6 3
7 7 6 6 5 5 4 4 4 3 3 3 3 3 3 3 3 3 2 2 1 2 2 1 0 1 2 3 4 3 4 5
9 7 6 6 6 6 4 4 4 4 4 5 5 4 3 3 3 3 3 3 4 2 1 1 2 1 1 2 2 3 4 4
7 5 7 6 6 5 4 4 4 5 4 4 6 6 6 4 4 4 4 4 3 3 2 1 1 1 2 3 2 2 3 3
8 7 8 8 6 3 4 4 4 4 4 4 6 6 7 6 5 5 5 4 4 3 3 3 2 2 3 2 3 3 2 2
6 5 7 5 2 2 2 2 4 4 5 5 7 5 7 6 5 6 5 4 4 3 5 3 3 3 3 4 4 4 3 2
7 7 8 4 2 2 2 4 3 4 5 8 8 7 7 7 5 6 6 6 7 6 4 5 4 3 0 3 3 5 4 3
6 8 7 6 3 3 3 3 4 3 4 6 8 9 10 9 9 9 9 6 7 7 6 4 3 4 3 2 3 4 3 3
9 8 7 7 6 1 1 2 3 3 4 4 9 12 12 12 11 10 10 8 8 7 7 7 5 3 4 4 1 4 3 1
7 8 7 5 3 4 4 4 6 5 6 5 7 8 12 12 13 12 11 7 6 4 4 4 4 4 1 2 1 3 1 5
4 5 5 5 5 4 5 6 7 8 7 7 9 7 9 11 12 11 5 3 4 5 4 5 2 4 2 1 1 2 4 4
7 7 4 6 5 5 7 9 10 7 8 6 7 5 5 6 5 6 8 9 7 5 4 4 3 3 3 1 2 2 2 2
5 6 6 7 9 9 10 11 10 9 9 6 7 2 2 4 8 9 8 8 7 4 4 0 1 3 2 2 3 5 6 3
5 7 8 9 9 11 10 10 6 6 6 5 4 2 4 6 10 9 7 5 4 3 2 0 1 2 6 7 6 5 4 4
Wind_Direction
156 161 168 159 162 176 161 151 148 138 135 128 112 111 100 85 73 73 68 63 52 72 88 321 311 300 336 354 46 33 40 14
165 176 164 191 260 236 167 180 173 162 152 134 126 113 97 87 75 72 74 64 60 54 42 39 26 18 5 4 1 30 23 345
192 200 202 201 268 282 254 210 194 163 139 115 90 61 66 76 99 84 82 70 56 48 41 33 18 8 7 6 13 29 1 340
212 215 223 205 256 235 258 280 269 123 139 147 138 132 122 94 96 72 43 46 48 50 44 25 14 358 357 4 354 356 352 344
191 199 201 202 222 199 200 235 246 204 171 179 176 167 167 158 152 121 118 76 31 27 18 25 11 6 355 348 347 349 338 338
194 183 168 155 158 173 190 202 214 218 194 168 159 172 184 188 197 202 174 126 123 65 30 353 355 342 341 340 335 327 318 313
195 181 177 135 129 138 167 215 207 193 184 218 186 189 199 191 196 188 190 152 148 129 337 1 344 342 324 305 315 309 313 307
185 194 176 153 150 159 171 176 180 180 203 214 194 191 205 203 189 175 157 160 140 149 142 112 58 19 337 341 315 298 326 341
189 186 168 170 178 179 177 190 180 191 197 201 193 175 198 192 191 184 186 178 161 138 65 45 25 351 357 345 316 343 338 333
182 186 176 191 198 194 190 198 199 208 207 204 203 191 184 174 180 196 192 182 166 163 167 197 228 208 275 296 301 288 305 320
186 188 192 203 208 210 223 223 221 220 208 215 221 204 189 182 192 201 195 188 188 186 199 183 216 276 274 269 290 291 297 332
177 191 209 205 194 212 256 266 260 243 229 221 222 219 209 195 200 199 191 192 202 195 201 206 196 217 284 303 286 275 307 281
187 193 212 164 187 201 253 236 219 239 236 227 217 215 213 205 207 203 193 197 199 192 185 203 234 206 30 317 302 282 265 308
212 223 214 211 199 210 190 199 232 241 231 242 231 220 213 208 205 210 203 198 206 195 181 179 210 183 170 110 298 326 339 283
219 229 236 231 237 299 300 339 307 284 252 247 233 222 224 213 211 212 208 199 206 200 185 176 190 190 190 159 183 233 322 281
240 242 251 268 264 260 242 252 266 251 254 247 249 222 230 227 224 215 211 200 188 174 154 162 147 165 126 138 81 144 203 317
326 338 333 320 301 265 270 262 258 266 269 270 265 254 233 238 231 222 193 122 110 121 115 114 103 115 100 53 292 208 208 207
13 10 349 5 358 307 262 266 271 276 275 277 273 253 250 236 172 126 114 102 93 84 82 92 138 143 129 178 237 281 267 251
15 12 332 325 349 329 320 309 302 282 277 274 281 281 26 57 98 96 91 94 98 126 112 57 328 62 7 285 270 267 247 230
345 349 337 336 327 319 311 300 289 281 280 290 282 129 85 71 78 84 92 103 115 84 95 307 260 268 261 230 230 224 214 214